Total_Precipitation_Accumulation
1.41 1.60 1.57 1.45 1.47 1.52 1.65 1.82 1.94 1.77 1.61 1.51 1.38 1.27 1.33 1.46 1.50 1.30 1.23 1.32 1.18 1.00 0.93 0.90 0.90 0.94 1.00 1.03 1.07 1.14 1.21 1.27 1.37 1.53 1.81 2.17 2.49 2.83
1.64 1.74 1.73 1.69 1.68 1.59 1.64 1.76 1.93 1.97 1.72 1.43 1.39 1.33 1.30 1.17 1.28 1.15 1.12 1.25 1.14 1.05 1.00 0.95 0.91 0.93 0.95 0.95 0.92 0.92 0.94 0.94 0.96 1.02 1.12 1.27 1.46 1.73
1.73 1.87 1.92 2.05 2.03 1.84 1.78 1.75 1.80 1.92 1.72 1.46 1.43 1.38 1.25 1.12 1.12 1.06 1.00 1.00 0.98 1.04 0.94 0.87 0.81 0.79 0.82 0.85 0.85 0.83 0.80 0.78 0.81 0.85 0.91 0.99 1.04 1.13
1.82 2.05 2.08 2.08 2.00 1.89 1.90 1.82 1.78 1.92 1.84 1.65 1.62 1.51 1.40 1.24 1.17 1.12 0.97 0.93 0.96 1.15 1.05 0.91 0.82 0.78 0.75 0.72 0.70 0.71 0.74 0.76 0.77 0.80 0.84 0.88 0.91 0.92
1.86 1.93 1.95 2.03 1.95 1.90 1.83 1.78 1.74 1.89 2.01 1.86 1.82 1.79 1.65 1.46 1.36 1.22 1.09 1.09 0.94 0.96 0.96 0.88 0.82 0.76 0.73 0.71 0.72 0.71 0.69 0.68 0.69 0.72 0.76 0.83 0.86 0.87
1.84 1.91 1.96 1.96 2.01 2.11 2.00 1.95 2.00 2.08 2.14 2.08 1.99 2.07 1.99 1.77 1.59 1.40 1.25 1.16 1.07 0.88 0.90 0.90 0.86 0.78 0.71 0.65 0.63 0.63 0.67 0.66 0.65 0.67 0.68 0.71 0.79 0.87
1.81 1.78 1.85 2.03 2.11 2.14 1.98 2.00 2.11 2.09 2.05 2.07 2.03 2.12 2.13 1.99 1.70 1.44 1.34 1.31 1.22 1.06 0.98 0.86 0.84 0.82 0.80 0.79 0.77 0.74 0.69 0.69 0.69 0.68 0.69 0.73 0.79 0.91
1.77 1.70 1.62 1.65 1.73 1.83 1.81 1.75 1.79 1.85 1.90 1.92 1.95 2.01 2.06 1.97 1.78 1.59 1.47 1.36 1.31 1.26 1.27 1.20 1.06 1.05 0.94 0.83 0.88 0.84 0.79 0.76 0.74 0.74 0.75 0.76 0.80 0.91
1.47 1.43 1.25 1.17 1.38 1.46 1.59 1.58 1.47 1.44 1.47 1.61 1.74 1.78 1.92 1.97 1.92 1.74 1.67 1.57 1.41 1.36 1.38 1.36 1.27 1.15 0.97 0.93 1.02 0.89 0.85 0.83 0.83 0.84 0.82 0.78 0.74 0.75
1.23 1.19 1.18 1.16 1.21 1.30 1.37 1.37 1.32 1.28 1.27 1.28 1.39 1.58 1.76 1.92 1.94 1.86 1.82 1.69 1.50 1.38 1.37 1.38 1.28 1.19 1.05 0.99 1.05 0.95 0.88 0.85 0.83 0.89 0.97 0.96 0.81 0.74
1.26 1.31 1.32 1.21 1.26 1.22 1.20 1.21 1.21 1.26 1.26 1.25 1.27 1.45 1.63 1.75 1.89 1.86 1.80 1.70 1.52 1.38 1.31 1.28 1.24 1.27 1.20 1.07 0.97 0.91 0.77 0.71 0.68 0.69 0.83 1.07 1.15 0.97
1.44 1.39 1.32 1.17 1.12 1.07 1.06 1.13 1.09 1.09 1.18 1.21 1.22 1.32 1.44 1.56 1.72 1.69 1.62 1.64 1.50 1.36 1.22 1.22 1.19 1.22 1.24 1.08 0.91 0.79 0.71 0.69 0.66 0.67 0.82 1.13 1.28 1.13
1.49 1.42 1.34 1.22 1.05 0.99 0.94 0.94 0.97 1.01 1.07 1.13 1.23 1.33 1.46 1.58 1.59 1.58 1.58 1.49 1.44 1.24 1.04 1.11 1.11 1.05 1.02 0.94 0.84 0.76 0.69 0.64 0.62 0.64 0.73 0.98 1.23 1.18
1.61 1.53 1.45 1.30 1.06 0.98 0.88 0.87 0.88 0.86 0.97 1.07 1.12 1.22 1.34 1.49 1.59 1.65 1.65 1.53 1.36 1.23 1.14 1.14 1.10 1.05 0.96 0.87 0.80 0.73 0.73 0.69 0.64 0.63 0.64 0.78 0.91 1.16
1.58 1.65 1.50 1.33 1.14 1.00 0.98 0.93 0.85 0.79 0.93 1.05 1.04 1.08 1.16 1.30 1.56 1.77 1.86 1.79 1.51 1.23 1.12 1.05 0.99 0.97 0.97 0.84 0.71 0.66 0.68 0.72 0.68 0.66 0.67 0.70 0.81 1.01
1.56 1.61 1.47 1.35 1.18 1.03 1.00 0.91 0.80 0.78 0.85 0.96 1.03 1.10 1.20 1.30 1.43 1.60 1.79 1.82 1.65 1.27 1.08 1.02 0.96 0.98 0.94 0.84 0.73 0.64 0.60 0.65 0.68 0.71 0.79 0.82 0.93 1.05
1.61 1.68 1.62 1.50 1.39 1.24 1.14 1.09 1.04 0.99 0.93 0.94 1.07 1.12 1.18 1.18 1.25 1.37 1.58 1.68 1.54 1.20 1.00 0.98 1.03 1.05 1.03 1.03 0.91 0.73 0.65 0.61 0.64 0.76 0.88 0.90 0.93 0.95
1.41 1.58 1.58 1.47 1.39 1.35 1.31 1.24 1.18 1.10 1.04 1.03 1.06 1.10 1.11 1.13 1.18 1.27 1.38 1.48 1.43 1.25 1.07 0.96 1.05 1.13 1.11 1.03 0.88 0.74 0.67 0.65 0.66 0.79 0.86 0.85 0.81 0.82
1.11 1.30 1.31 1.28 1.26 1.27 1.24 1.15 1.07 1.08 1.11 1.07 1.02 1.07 1.12 1.14 1.17 1.24 1.30 1.40 1.44 1.39 1.25 1.10 1.07 1.08 0.98 0.80 0.70 0.66 0.67 0.69 0.75 0.79 0.81 0.79 0.74 0.71
0.93 1.07 1.12 1.14 1.17 1.22 1.22 1.21 1.16 1.17 1.19 1.15 1.12 1.15 1.22 1.25 1.24 1.26 1.33 1.35 1.40 1.41 1.37 1.21 1.06 0.98 0.89 0.77 0.70 0.62 0.57 0.64 0.73 0.75 0.75 0.78 0.75 0.74
0.96 1.03 1.08 1.09 1.13 1.21 1.23 1.23 1.22 1.24 1.23 1.24 1.24 1.25 1.32 1.39 1.30 1.24 1.28 1.34 1.30 1.33 1.29 1.14 1.03 1.06 1.08 1.08 0.90 0.67 0.62 0.60 0.64 0.70 0.76 0.83 0.81 0.81
1.03 1.04 1.10 1.13 1.14 1.14 1.17 1.17 1.19 1.23 1.23 1.23 1.28 1.31 1.32 1.33 1.26 1.23 1.23 1.27 1.23 1.18 1.20 1.24 1.34 1.35 1.25 1.14 0.93 0.78 0.75 0.73 0.72 0.70 0.68 0.70 0.70 0.68
1.05 1.06 1.08 1.06 1.05 1.08 1.11 1.12 1.19 1.22 1.20 1.20 1.25 1.30 1.30 1.27 1.22 1.22 1.21 1.21 1.24 1.26 1.32 1.40 1.47 1.42 1.24 1.11 0.99 0.91 0.88 0.87 0.83 0.79 0.73 0.64 0.56 0.50